Air Resources Laboratory banner image
Air Resources Laboratory web site National Oceanic and Atmospheric Administration (NOAA)

nj roundup


Office: PHI

ASUS41 KPHI 180013
RWRPHI

REGIONAL WEATHER ROUNDUP
NATIONAL WEATHER SERVICE MOUNT HOLLY NJ
800 PM EDT TUE JUL 17 2018

NOTE:  "FAIR" INDICATES FEW OR NO CLOUDS BELOW 12,000 FEET WITH NO
SIGNIFICANT WEATHER AND/OR OBSTRUCTIONS TO VISIBILITY.

 * = STATION DOES NOT REPORT PRECIPITATION (E.G. RAIN, SNOW, ETC.)
        OR FOG.

NJZ015>026-180100-
SOUTHERN NEW JERSEY

CITY           SKY/WX    TMP DP  RH WIND       PRES   REMARKS
POMONA         CLOUDY    75  74  96 E8        29.83F
6HR MIN TEMP:  75; 6HR MAX TEMP:  91; 6HR PCP:  0.75;

WILDWOOD*      RAIN      74  73  97 VRB3      29.83F FOG
MILLVILLE      LGT RAIN N/A N/A N/A SE7       29.83R
WRIGHTSTOWN    MOCLDY    72  70  94 SE5       29.81S
MOUNT HOLLY    MOCLDY    74  74 100 E5        29.83S
TRENTON        FAIR      74  71  91 CALM      29.83S
6HR MIN TEMP:  72; 6HR MAX TEMP:  92; 6HR PCP:  1.43;


$$
NJZ001>014-180100-
NORTHERN NEW JERSEY

CITY           SKY/WX    TMP DP  RH WIND       PRES   REMARKS
SUSSEX         CLOUDY    74  73  97 CALM      29.83S
ANDOVER*         N/A     73  73 100 CALM      29.84S
MORRISTOWN     RAIN      73  72  94 SW5       29.84S FOG
NEWARK         CLOUDY    73  71  93 SW5       29.83F
TETERBORO      DRIZZLE   73  70  90 S9        29.82S
CALDWELL       CLOUDY    72  72 100 CALM      29.83F
ALLAIRE*       CLOUDY    70  69  97 SE7       29.85F
TOMS RIVER*    CLOUDY    71  70  96 SE3       29.85F

$$
PAZ043-044-047-054-055-060>062-066>071-180100-
EASTERN PENNSYLVANIA

CITY           SKY/WX    TMP DP  RH WIND       PRES   REMARKS
PHILADELPHIA   MOCLDY    77  72  84 CALM      29.83S
6HR MIN TEMP:  76; 6HR MAX TEMP:  94; 6HR PCP:  0.07;

NORTH PHILA    FAIR      79  70  74 CALM      29.84F
BLUE BELL*     FAIR      73  73 100 CALM      29.86S
DOYLESTOWN     FAIR      73  72  96 CALM      29.84F
QUAKERTOWN*    MOCLDY    77  73  88 CALM      29.85S
PERKASIE*      MOCLDY    75  75 100 CALM      29.86S
POTTSTOWN      MOCLDY    75  72  90 S3        29.86R
LANCASTER      MOCLDY    79  72  79 NE3       29.84R
COATESVILLE    FAIR      77  72  83 NW6       29.87S
READING        CLOUDY    78  74  87 W3        29.83S
6HR MIN TEMP:  73; 6HR MAX TEMP:  83; 6HR PCP:  0.37;

ALLENTOWN      FAIR      79  72  79 CALM      29.84S
6HR MIN TEMP:  75; 6HR MAX TEMP:  80; 6HR PCP:  0.03;

MOUNT POCONO   RAIN      67  67 100 NW5       29.91R FOG
6HR MIN TEMP:  67; 6HR MAX TEMP:  74;

HAZLETON       MOCLDY    70  66  88 CALM      29.94R
LEHIGHTON      HVY RAIN  73  68  83 N7        29.87R
WILKES BARRE   CLOUDY    71  70  96 CALM      29.87R

$$
DEZALL-MDZ008-012-015-019-020-180100-
DELAWARE AND EASTERN MARYLAND

CITY           SKY/WX    TMP DP  RH WIND       PRES   REMARKS
WILMINGTON     MOCLDY    77  72  84 N7        29.83S
6HR MIN TEMP:  71; 6HR MAX TEMP:  91; 6HR PCP:  0.38;

DOVER          MOCLDY    75  73  95 CALM      29.81F
GEORGETOWN     CLOUDY    73  72  96 SE3       29.83S
6HR MIN TEMP:  73; 6HR MAX TEMP:  95; 6HR PCP:  0.27;

EASTON         PTCLDY    77  75  94 CALM      29.85R
ABERDEEN       MOCLDY    79  73  83 CALM      29.82
PATUXENT       MOCLDY    78  78 100 CALM      29.81
OCEAN CITY     RAIN      74  73  97 E6        29.84S FOG
WALLOPS ISLAND MOCLDY    81  79  94 S6        29.82S HX  90
CAMBRIDGE      PTCLDY    77  75  94 CALM      29.81R
SALISBURY      CLOUDY    75  74  96 E3        29.82S

$$
PAZ001-021-NYZ056-072-MDZ011-DCZ001-180100-
OTHER NEARBY LOCATIONS

CITY           SKY/WX    TMP DP  RH WIND       PRES   REMARKS
HARRISBURG     MOCLDY    80  73  79 CALM      29.83R
STATE COLLEGE  PTCLDY    75  61  60 NW9       29.92R
WILLIAMSPORT   FAIR      75  71  87 W5        29.86R
BINGHAMTON     FAIR      71  55  56 N12       29.91R
NEW YORK CITY  LGT RAIN  71  70  96 CALM      29.86  FOG
BALTIMORE      MOCLDY    78  75  90 SE3       29.82S
WASHINGTON DC  MOCLDY    83  74  74 CALM      29.83R

$$


ASUS61 KPHI 180015
RTPPHI
Max/Min Temperature and Precipitation Table for New Jersey...
Eastern Pennsylvania...Delaware...and Eastern Maryland
National Weather Service Mt Holly NJ
815 PM EDT Tue Jul 17 2018

Values represent lows over the last 18 hours...
highs over the last 18 hours and precipitation over the
last 24 hours.

.BR PHI 0717 E DH19/TAIRZS/TAIRZI/PPDRZZ/SFDRZZ/SDIRZZ
:
:                                 MAX     MIN             SNOW   SNOW
:ID        LOCATION               TEMP    TEMP    PCPN    FALL   DEPTH
:
:...NORTHERN NEW JERSEY...
12N  : Andover Airport         :   86  /   71 /   0.17/      M/     M
TTN  : Mercer County AP        :   92  /   72 /   1.43/      M/     M
FWN  : Sussex Airport          :   87  /   70 /   0.53/      M/     M
TEB  : Teterboro               :   93  /   72 /   0.62/      M/     M
CDW  : Caldwell                :   89  /   71 /     T /      M/     M
EWR  : Newark Liberty          :   93  /   71 /   1.12/      M/     M
SMQ  : Somerville Airport      :   89  /   69 /   0.15/      M/     M
BLM  : Belmar Airport          :   90  /   70 /   1.28/      M/     M
:
:...SOUTHERN NEW JERSEY...
ACY  : Atlantic City Airport   :   95  /   75 /   0.75/      M/     M
VAY  : South Jersey Regional AP:   94  /   74 /   0.21/      M/     M
WRI  : Mcguire AFB             :   96  /   72 /   0.64/      M/     M
MIV  : Millville AP            :   93  /   75 /   1.65/      M/     M
WWD  : Wildwood Airport        :   90  /   74 /   0.39/      M/     M
ATLN4: Atlantic City Marina    :   80  /   73 /   0.00/      M/     M
:
:...EASTERN PENNSYLVANIA...
PHL  : Philadelphia AP         :   94  /   76 /   0.07/      M/     M
ABE  : Lehigh Valley Intl      :   89  /   75 /   0.05/      M/     M
RDG  : Reading AP              :   87  /   73 /   0.37/      M/     M
MPO  : Mount Pocono AP         :   80  /   67 /   0.56/      M/     M
AVP  : Wilkes-Barre AP         :   82  /   71 /   0.78/      M/     M
PTW  : Pottstown AP            :   88  /   70 /   1.76/      M/     M
DYL  : Doylestown AP           :   89  /   69 /   1.60/      M/     M
PNE  : Northeast Philadelphia  :   95  /   76 /   0.41/      M/     M
SEG  : Selinsgrove AP          :   80  /   70 /   0.91/      M/     M
THV  : York AP                 :   85  /   70 /   0.70/      M/     M
LNS  : Lancaster AP            :   89  /   71 /   0.17/      M/     M
UKT  : Quakertown AP           :   88  /   72 /   0.02/      M/     M
:
:...DELAWARE AND EASTERN MARYLAND...
ILG  : Wilmington Airport      :   94  /   71 /   0.38/      M/     M
GED  : Georgetown AP           :   95  /   73 /   0.27/      M/     M
ESN  : Easton Airport          :   93  /   75 /   0.00/      M/     M
NAK  : Annapolis Naval Academy :   92  /   78 /   0.21/      M/     M
DOV  : Dover AFB               :   96  /   73 /   0.66/      M/     M
OXB  : Ocean City AP           :   86  /   74 /   0.14/      M/     M
SBY  : Salisbury AP            :   94  /   74 /   0.07/      M/     M
BWI  : BWI Thurgood Marshall AP:   91  /   72 /   2.53/      M/     M
:
.END
:
.BR PHI 0717 E DH00/TAIRZX/DH07/TAIRZP
:
:...OTHER COASTAL OBSERVATIONS...
SDHN4: Sandy Hook              :   85  /   70
MSNN4: Manasquan               :   82  /   69
BGLN4: Barnegat Light          :   80  /   68
CMAN4: Cape May Ferry          :   83  /   74
LWSD1: Lewes                   :   93  /   74
CAMM2: Cambridge               :   91  /   74
TCBM2: Tolchester Beach        :   86  /   75
DELD1: Delaware City           :   92  /   72
PHBP1: USCG Washington St Phila:   96  /   75
NBLP1: Newbold Island          :   91  /   74
.END
:
These data are preliminary and have not undergone final quality
control by the National Climatic Data Center /NCDC/. Therefore...
these data are subject to revision. Final and certified climate data
can be accessed at www.ncdc.noaa.gov
:
$$




Office: OKX ASUS41 KOKX 180005 RWROKX Regional Weather Roundup National Weather Service New York NY 800 PM EDT TUE JUL 17 2018 Note: "FAIR" indicates few or no clouds below 12,000 feet with no significant weather and/or obstructions to visibility. NYZ071-072-176-178-NJZ106-104-180100- New York City Metro Area CITY SKY/WX TMP DP RH WIND PRES REMARKS Central Park LGT RAIN 71 70 96 CALM 29.86S FOG Bronx Bot Gard NOT AVBL Bronx Lehman C N/A 72 68 88 S9 N/A LaGuardia Arpt MOCLDY 73 68 84 S12 29.83S Queens College N/A 72 68 88 S14 N/A Kennedy Intl MOCLDY 71 71 100 S10 29.84S Breezy Point N/A 70 N/A N/A S12 N/A Brooklyn Coll N/A 72 70 94 S8 N/A Staten Island N/A 72 70 94 S2 N/A Newark/Liberty CLOUDY 73 71 93 SW5 29.83F Teterboro DRIZZLE 73 70 90 S9 29.82S $$ NYZ177-179-078>081-180100- Long Island New York CITY SKY/WX TMP DP RH WIND PRES REMARKS Jones Beach N/A 70 N/A N/A S14G20 N/A Wantagh N/A 72 70 94 S8 N/A Hempstead N/A 70 68 94 SE8 29.87R Matinecock Pt N/A 72 N/A N/A SW9 N/A Farmingdale FAIR 71 69 93 S9 29.84F MacArthur/ISP MOCLDY 71 71 100 S10 29.82F Stony Brook N/A 70 70 100 S5 N/A Shirley LGT RAIN 71 71 100 S9 29.83F Mt Sinai Harb N/A N/A N/A N/A S13 N/A Westhampton LGT RAIN 71 68 90 SW8G17 29.85R FOG East Hampton LGT RAIN 70 69 98 S6 29.81F Southold N/A 72 72 100 SW3 N/A Montauk N/A 71 71 100 CALM 29.82F $$ NYZ052-065-067-180100- Hudson Valley CITY SKY/WX TMP DP RH WIND PRES REMARKS White Plains MOCLDY 71 70 96 S7 29.83F FOG Larchmont Harb N/A 70 N/A N/A S13 N/A Croton On Huds N/A 73 N/A N/A SW6 N/A Somers N/A 70 70 100 S6 N/A Brewster N/A 70 68 94 S2 N/A Newburgh MOCLDY 73 73 100 CALM 29.84R Montgomery CLOUDY 74 72 93 S3 29.82R Otisville N/A 73 72 94 SW2 N/A Warwick N/A 73 73 100 S1 N/A Suffern N/A 70 70 100 SW2 N/A Poughkeepsie MOCLDY 73 70 90 S5 29.81R Albany MOCLDY 77 65 66 SW8 29.80R $$ NJZ001-105-106-008-010-013-015-019>022-104-180100- New Jersey CITY SKY/WX TMP DP RH WIND PRES REMARKS Newark/Liberty CLOUDY 73 71 93 SW5 29.83F Teterboro DRIZZLE 73 70 90 S9 29.82S Caldwell CLOUDY 72 72 100 CALM 29.83F Somerville NOT AVBL Linden NOT AVBL Perth Amboy N/A 73 N/A N/A NW6 N/A Sussex CLOUDY 74 73 97 CALM 29.83S Andover N/A 73 73 100 CALM 29.84S Trenton MOCLDY 75 72 90 SW5 29.83S Millville LGT RAIN N/A N/A N/A SE7 29.83R Atlantic City CLOUDY 75 74 96 E8 29.83 Wrightstown MOCLDY 72 71 97 SE6 29.81 Toms River CLOUDY 71 70 96 SE3 29.85F Belmar CLOUDY 70 69 97 SE7 29.85F $$ PAZ047>061-062-071-180100- Eastern Pennsylvania CITY SKY/WX TMP DP RH WIND PRES REMARKS Philadelphia MOCLDY 77 72 84 CALM 29.83S Allentown FAIR 79 72 79 CALM 29.84S Scranton CLOUDY 71 70 96 CALM 29.87R $$ CTZ002-004>006-009-010-012-RIZ004-006-007-MAZ004-011-015-180100- Southern New England In CT CITY SKY/WX TMP DP RH WIND PRES REMARKS Bradley Intl CLOUDY 71 70 96 SW6 29.81R Hartford HVY RAIN 72 70 93 W3 29.82R FOG Danbury CLOUDY 71 70 96 S5 29.84F Wtrbury/Oxford RAIN 70 70 100 SW6 29.85S FOG Norwalk Harbor N/A 70 N/A N/A S9 N/A Bridgeport LGT RAIN 73 71 93 SW10 29.82F Meriden LGT RAIN 71 70 96 CALM 29.82R New Haven FAIR 73 71 93 SW5 29.83R Chester DRIZZLE 72 72 100 VRB6 29.82F Groton LGT RAIN 71 69 93 VRB3 29.79F FOG Willimantic LGT RAIN 71 70 96 S5 29.81F In RI CITY SKY/WX TMP DP RH WIND PRES REMARKS Providence LGT RAIN 71 69 93 W5 29.82R Block Island LGT RAIN 70 69 97 W8 29.81F Westerly LGT RAIN 72 72 100 SW6 29.82S FOG In MA CITY SKY/WX TMP DP RH WIND PRES REMARKS Boston LGT RAIN 72 69 90 SW7 29.79 FOG Worcester NOT AVBL Westfield CLOUDY 71 71 100 S7 29.81S Provincetown HVY RAIN 70 70 100 S9 29.82S FOG Nantucket FOG 69 68 96 S12 29.84S VSB 1 $$ ANZ330-335-338-340-345-350-353-355-180100- Coastal Marine Observations STATION/POSITION TIME SKY/WX TEMP WIND PRES VSBY WAVE AIR SEA DIR/SP/G HT/PER (UTC) (F) (DEG/KT/KT) (MB) (MI) (FT/S) NY Harb Entrance 2350 71 74 150/ 14/ 17 1010.1 3/ 6 20 S Fire Island 2350 71 74 200/ 6/ 6 1011.1 3/ 6 Great South Bay 2315 80 210/ 16/ 17 N/A 23 SSW Montauk P 2350 72 73 240/ 6/ 8 1010.5 4/ 6 15 E Barnegat Li 2330 75 N/A 4/ 6 Hudson Canyon 2350 74 340/ 8/ 10 1010.5 3/ 5 Kings Point 2348 72 70 220/ 13/ 14 1011.1 Execution Rocks NOT AVBL Western LI Sound 2245 72 200/ 8/ 12 N/A 0 Central LI Sound 2245 72 190/ 10/ 10 N/A 1 Robbins Reef 2348 72 170/ 12/ 13 1010.7 $$ >>>>>>>>>>>>>>>>>>>>>>>>>>>> KEY <<<<<<<<<<<<<<<<<<<<<<<<<<< > < > SKY/WX - Sky Condition/Present Weather < > TMP - Temperature in Fahrenheit < > DP - Dew Point in Fahrenheit < > RH - Relative Humidity in Percent < > WIND - Direction (from) and Speed in MPH < > PRES - Mean Sea Level Pressure (inches of Hg) < > WCI - Wind Chill Index < > VSB - Visibility in Miles < > HX - Heat Index < > TC - Temperature in Celsius < > VRB - Varibale Wind Direction < > < >>>>>>>>>>>>>>>>>>>>>>>>>>>> KEY <<<<<<<<<<<<<<<<<<<<<<<<<<<